• In Hungary
  • List of Countries
  • For 7 days
  • Water Temperature
  • Satellite Maps
  • Weather Map
  • News
  • Weather Widgets
  • user-avatar
    Login

    Hourly Weather Samarta

    Today, 25 June, Monday

    Time Temperature Precipitation Wind Pressure Humidity
    00:00 +12°C° 0.1 mm 2 mps 677 mmHg 96%
    01:00 +10°C° 0 mm 2 mps 677 mmHg 97%
    02:00 +10°C° 0 mm 2 mps 677 mmHg 96%
    03:00 +10°C° 0 mm 2 mps 677 mmHg 96%
    04:00 +12°C° 0 mm 2 mps 677 mmHg 96%
    05:00 +13°C° 0 mm 2 mps 677 mmHg 91%
    06:00 +14°C° 0 mm 2 mps 677 mmHg 87%
    07:00 +13°C° 0 mm 3 mps 677 mmHg 87%
    08:00 +14°C° 0.4 mm 3 mps 677 mmHg 85%
    09:00 +14°C° 0.4 mm 3 mps 677 mmHg 83%
    10:00 +15°C° 0.4 mm 4 mps 677 mmHg 81%
    11:00 +16°C° 0.6 mm 3 mps 677 mmHg 82%
    12:00 +16°C° 0.6 mm 3 mps 677 mmHg 82%
    13:00 +16°C° 0.6 mm 3 mps 677 mmHg 83%
    14:00 +16°C° 0.3 mm 3 mps 677 mmHg 80%
    15:00 +17°C° 0.3 mm 3 mps 678 mmHg 78%
    16:00 +17°C° 0.3 mm 3 mps 678 mmHg 75%
    17:00 +16°C° 0.2 mm 3 mps 678 mmHg 79%
    18:00 +14°C° 0.2 mm 3 mps 678 mmHg 82%
    19:00 +15°C° 0.2 mm 2 mps 678 mmHg 86%
    20:00 +14°C° 0.1 mm 2 mps 678 mmHg 88%
    21:00 +14°C° 0.1 mm 2 mps 679 mmHg 90%
    22:00 +13°C° 0.1 mm 2 mps 679 mmHg 92%
    23:00 +13°C° 0.2 mm 2 mps 679 mmHg 92%

    Tomorrow, 26 June, Tuesday

    Time Temperature Precipitation Wind Pressure Humidity
    00:00 +13°C° 0.2 mm 2 mps 679 mmHg 93%
    01:00 +13°C° 0.2 mm 2 mps 680 mmHg 94%
    02:00 +12°C° 0.3 mm 2 mps 680 mmHg 95%
    03:00 +12°C° 0.3 mm 2 mps 680 mmHg 95%
    04:00 +12°C° 0.3 mm 1 mps 680 mmHg 96%
    05:00 +13°C° 0.2 mm 2 mps 680 mmHg 92%
    06:00 +14°C° 0.2 mm 2 mps 681 mmHg 89%
    07:00 +14°C° 0.2 mm 3 mps 681 mmHg 85%
    08:00 +16°C° 0.2 mm 3 mps 682 mmHg 82%
    09:00 +16°C° 0.2 mm 3 mps 682 mmHg 78%
    10:00 +17°C° 0.2 mm 3 mps 682 mmHg 75%
    11:00 +18°C° 0.4 mm 3 mps 682 mmHg 72%
    12:00 +19°C° 0.4 mm 3 mps 682 mmHg 69%
    13:00 +20°C° 0.4 mm 3 mps 683 mmHg 67%
    14:00 +21°C° 0.4 mm 4 mps 683 mmHg 65%
    15:00 +21°C° 0.4 mm 4 mps 683 mmHg 64%
    16:00 +22°C° 0.4 mm 4 mps 683 mmHg 62%
    17:00 +21°C° 0.2 mm 3 mps 683 mmHg 67%
    18:00 +20°C° 0.2 mm 2 mps 683 mmHg 71%
    19:00 +19°C° 0.2 mm 2 mps 683 mmHg 76%
    20:00 +18°C° 0 mm 1 mps 683 mmHg 80%
    21:00 +16°C° 0 mm 1 mps 683 mmHg 85%
    22:00 +14°C° 0 mm 1 mps 683 mmHg 89%
    23:00 +14°C° 0 mm 1 mps 684 mmHg 90%

    Day after tomorrow, 27 June, Wednesday

    Time Temperature Precipitation Wind Pressure Humidity
    00:00 +13°C° 0 mm 1 mps 684 mmHg 90%
    01:00 +13°C° 0 mm 1 mps 684 mmHg 91%
    02:00 +13°C° 0 mm 1 mps 684 mmHg 92%
    03:00 +12°C° 0 mm 1 mps 684 mmHg 92%
    04:00 +12°C° 0 mm 1 mps 684 mmHg 93%
    05:00 +14°C° 0 mm 1 mps 685 mmHg 84%
    06:00 +18°C° 0 mm 1 mps 685 mmHg 76%
    07:00 +20°C° 0 mm 1 mps 685 mmHg 67%
    08:00 +21°C° 0 mm 2 mps 686 mmHg 58%
    09:00 +24°C° 0 mm 2 mps 686 mmHg 49%
    10:00 +27°C° 0 mm 3 mps 686 mmHg 39%
    11:00 +28°C° 0 mm 3 mps 685 mmHg 36%
    12:00 +29°C° 0 mm 3 mps 685 mmHg 32%
    13:00 +30°C° 0 mm 3 mps 685 mmHg 29%
    14:00 +30°C° 0 mm 3 mps 685 mmHg 28%
    15:00 +30°C° 0 mm 3 mps 684 mmHg 27%
    16:00 +30°C° 0 mm 3 mps 684 mmHg 26%
    17:00 +29°C° 0 mm 3 mps 684 mmHg 32%
    18:00 +27°C° 0 mm 3 mps 684 mmHg 38%
    19:00 +25°C° 0 mm 2 mps 683 mmHg 44%
    20:00 +21°C° 0 mm 2 mps 683 mmHg 48%
    21:00 +20°C° 0 mm 1 mps 683 mmHg 52%
    22:00 +16°C° 0 mm 1 mps 682 mmHg 57%
    23:00 +15°C° 0 mm 1 mps 682 mmHg 60%

    28 June, Thursday

    Time Temperature Precipitation Wind Pressure Humidity
    00:00 +15°C° 0 mm 1 mps 682 mmHg 62%
    01:00 +14°C° 0 mm 1 mps 682 mmHg 65%
    02:00 +14°C° 0 mm 1 mps 682 mmHg 67%
    03:00 +14°C° 0 mm 1 mps 682 mmHg 68%
    04:00 +13°C° 0 mm 1 mps 682 mmHg 70%
    05:00 +16°C° 0 mm 1 mps 682 mmHg 63%
    06:00 +20°C° 0 mm 1 mps 682 mmHg 55%
    07:00 +23°C° 0 mm 2 mps 683 mmHg 48%
    08:00 +25°C° 0 mm 2 mps 682 mmHg 43%
    09:00 +27°C° 0 mm 3 mps 682 mmHg 38%
    10:00 +30°C° 0 mm 4 mps 682 mmHg 33%
    11:00 +29°C° 0 mm 4 mps 682 mmHg 34%
    12:00 +29°C° 0 mm 3 mps 681 mmHg 35%
    13:00 +29°C° 0 mm 3 mps 681 mmHg 36%
    14:00 +29°C° 0 mm 3 mps 681 mmHg 36%
    15:00 +29°C° 0 mm 3 mps 681 mmHg 35%
    16:00 +29°C° 0 mm 3 mps 680 mmHg 34%
    17:00 +28°C° 0 mm 3 mps 680 mmHg 38%
    18:00 +26°C° 0 mm 2 mps 680 mmHg 43%
    19:00 +25°C° 0 mm 2 mps 680 mmHg 47%
    20:00 +23°C° 0 mm 2 mps 680 mmHg 53%
    21:00 +21°C° 0 mm 1 mps 679 mmHg 59%
    22:00 +19°C° 0 mm 1 mps 679 mmHg 65%
    23:00 +18°C° 0 mm 1 mps 679 mmHg 68%

    29 June, Friday

    Time Temperature Precipitation Wind Pressure Humidity
    00:00 +16°C° 0 mm 1 mps 679 mmHg 72%
    01:00 +16°C° 0 mm 1 mps 679 mmHg 75%
    02:00 +15°C° 0 mm 1 mps 679 mmHg 77%
    03:00 +15°C° 0 mm 1 mps 678 mmHg 79%
    04:00 +14°C° 0 mm 1 mps 678 mmHg 81%
    05:00 +18°C° 0 mm 1 mps 679 mmHg 71%
    06:00 +21°C° 0 mm 1 mps 679 mmHg 61%
    07:00 +24°C° 0 mm 1 mps 679 mmHg 51%
    08:00 +26°C° 0 mm 2 mps 679 mmHg 44%
    09:00 +27°C° 0 mm 3 mps 679 mmHg 37%
    10:00 +29°C° 0 mm 4 mps 680 mmHg 31%
    11:00 +29°C° 0 mm 4 mps 679 mmHg 29%
    12:00 +30°C° 0 mm 4 mps 679 mmHg 27%
    13:00 +30°C° 0 mm 4 mps 679 mmHg 25%
    14:00 +29°C° 0 mm 4 mps 679 mmHg 27%
    15:00 +29°C° 0 mm 4 mps 679 mmHg 28%
    16:00 +29°C° 0 mm 3 mps 678 mmHg 30%
    17:00 +27°C° 0 mm 3 mps 678 mmHg 34%
    18:00 +26°C° 0 mm 3 mps 678 mmHg 38%
    19:00 +24°C° 0 mm 2 mps 678 mmHg 42%
    20:00 +21°C° 0 mm 2 mps 678 mmHg 47%
    21:00 +19°C° 0 mm 1 mps 678 mmHg 52%
    22:00 +16°C° 0 mm 1 mps 678 mmHg 57%
    23:00 +15°C° 0 mm 1 mps 677 mmHg 60%

    30 June, Saturday

    Time Temperature Precipitation Wind Pressure Humidity
    00:00 +14°C° 0 mm 0 mps 677 mmHg 63%
    01:00 +13°C° 0 mm 0 mps 677 mmHg 66%
    02:00 +13°C° 0 mm 0 mps 677 mmHg 67%
    03:00 +13°C° 0 mm 0 mps 677 mmHg 69%
    04:00 +12°C° 0 mm 0 mps 677 mmHg 70%
    05:00 +15°C° 0 mm 0 mps 678 mmHg 62%
    06:00 +20°C° 0 mm 1 mps 678 mmHg 55%
    07:00 +22°C° 0 mm 1 mps 679 mmHg 47%
    08:00 +25°C° 0 mm 1 mps 679 mmHg 42%
    09:00 +27°C° 0 mm 1 mps 679 mmHg 37%
    10:00 +29°C° 0 mm 1 mps 679 mmHg 32%
    11:00 +30°C° 0 mm 1 mps 679 mmHg 30%
    12:00 +31°C° 0 mm 1 mps 678 mmHg 27%
    13:00 +32°C° 0 mm 1 mps 678 mmHg 24%
    14:00 +31°C° 0 mm 1 mps 678 mmHg 25%
    15:00 +31°C° 0 mm 1 mps 678 mmHg 25%
    16:00 +31°C° 0 mm 1 mps 677 mmHg 25%
    17:00 +29°C° 0 mm 2 mps 677 mmHg 32%
    18:00 +27°C° 0 mm 2 mps 677 mmHg 39%
    19:00 +25°C° 0 mm 2 mps 677 mmHg 45%
    20:00 +23°C° 0 mm 2 mps 676 mmHg 52%
    21:00 +20°C° 0 mm 2 mps 676 mmHg 59%
    22:00 +18°C° 0 mm 2 mps 676 mmHg 65%
    23:00 +17°C° 0 mm 2 mps 676 mmHg 68%
    Show more